Location: Gleizolles
(44.4833°N, 6.7667°E)
Time: 15:20:50
(UTC+00:00)

deb Explorer IX - Pass Details

Date: 25 June 2024
Orbit: 510 x 878 km, 38.7° (Epoch: 21 July)

Event Time Altitude Azimuth Distance (km) Brightness Sun altitude
Rises 08:47:18 0° 257° (WSW) 2,792 ? 49.8°
Reaches altitude 10° 08:49:34 10° 251° (WSW) 1,945 ? 50.2°
Maximum altitude 08:53:49 42° 180° (S) 926 ? 50.9°
Drops below altitude 10° 08:58:34 10° 110° (ESE) 2,177 ? 51.7°
Sets 09:01:14 0° 104° (ESE) 3,166 ? 52.2°
